Regional Weather Roundup
Issued by NWS

Home | Current Version | Previous Version | Graphics & Text | Print | Product List | Glossary On
Versions: 1 2 3 4 5 6 7 8 9 10 11 12 13 14 15 16 17 18 19 20 21 22 23 24 25 26 27 28 29 30 31 32 33 34 35 36 37 38 39 40 41 42 43 44 45 46 47 48 49 50
000
ASUS43 KLOT 060108
RWRIL

ILLINOIS REGIONAL WEATHER ROUNDUP
NATIONAL WEATHER SERVICE CHICAGO/ROMEOVILLE IL
800 PM CDT THU MAY 05 2016

NOTE: "FAIR" INDICATES FEW OR NO CLOUDS BELOW 12,000 FEET WITH NO
SIGNIFICANT WEATHER AND/OR OBSTRUCTIONS TO VISIBILITY.

* THESE STATIONS ARE NOT UNDER NWS QUALITY CONTROL. THEY ALSO MAY NOT
  REPORT WEATHER SUCH AS PRECIPITATION OR FOG.

ILZ001-002-007-009-015-016-024-060200-
NORTHWEST ILLINOIS

CITY           SKY/WX    TMP DP  RH WIND       PRES   REMARKS
MOLINE         CLEAR     64  35  34 CALM      29.98S
STERLING*      CLEAR     57  43  58 W6        29.99S
SAVANNA*       CLEAR     62  39  43 CALM      29.98S
$$

ILZ003-004-008-010-011-017-018-060200-
NORTH CENTRAL ILLINOIS

CITY           SKY/WX    TMP DP  RH WIND       PRES   REMARKS
ROCKFORD       PTCLDY    59  38  45 NW5       29.99S
FREEPORT*      CLEAR     58  37  44 CALM      29.99S
ROCHELLE*      CLEAR     60  39  45 NW3       29.98S
DE KALB*       CLEAR     57  41  54 NW6       29.98S
$$

ILZ005-006-012>014-019>023-060200-
NORTHEAST ILLINOIS

CITY           SKY/WX    TMP DP  RH WIND       PRES   REMARKS
CHICAGO-OHARE  PTCLDY    54  37  52 NE6       29.97R
CHICAGO-MIDWAY MOCLDY    54  36  50 E7        29.98R
AURORA         CLEAR     58  43  57 NW6       29.97S
LANSING*       CLEAR     51  39  64 N3        29.98S
JOLIET*        PTCLDY    57  46  65 SE5       29.97R
WAUKEGAN       CLEAR     49  37  63 CALM      29.97S
DUPAGE AIRPORT CLEAR     59  36  42 NW3       29.96S
KANKAKEE*      CLEAR     55  43  62 NE5       29.97S
WHEELING       CLEAR     52  36  54 E5        29.99R
MORRIS*        CLEAR     61  42  49 NW5       29.96S
ROMEOVILLE*    CLEAR     56  41  58 E6        29.97S
NORTHERLY ISL    N/A     45  38  76 CALM        N/A
NORTHERLY ISL    N/A     45  38  76 CALM        N/A
$$

LMZ740>746-060200-
SOUTHERN LAKE MICHIGAN

STATION/POSITION SKY/WX   TEMP    WIND        PRES    VSBY  WAVE
                          AIR SEA DIR/SP/G                  HT/PER
                          (F)     (DEG/KT/KT) (MB)    (MI)  (FT/S)
SOUTHERN BUOY              42 40  320/  2/  2 1014.7S         2/ 5
WILMETTE HARBOR            44 44  250/  2/  4   N/A           3/ 6
HARRISON CRIB              49        CALM       N/A
BURNHAM HARBOR             45      CALM  /  3   N/A
CALUMET HARBOR                     50/  3/  4 1014.7F
BURNS HARBOR               48      70/  6/  8 1015.6F
MICHIGAN CITY              45      20/  3/  4   N/A
ST. JOSEPH                 45 47                N/A           3/ 5
$$

ILZ025>027-034>036-040-047-049-050-058-095>099-060200-
WEST-CENTRAL ILLINOIS

CITY           SKY/WX    TMP DP  RH WIND       PRES   REMARKS
QUINCY         CLEAR     61  40  45 N5        30.01S
GALESBURG*     CLEAR     61  37  40 CALM      29.99F
MACOMB*        CLEAR     60  37  42 NW5       30.02S
JACKSONVILLE*  CLEAR     61  39  44 NW3       30.00R
PITTSFIELD*    CLEAR     61  39  45 CALM      30.02S
$$

ILZ028>032-037-038-041>044-048-051>054-059>061-060200-
CENTRAL ILLINOIS

CITY           SKY/WX    TMP DP  RH WIND       PRES   REMARKS
PONTIAC        CLEAR     61  45  55 NW6       29.98S
BLOOMINGTON    CLEAR     60  42  51 NW7       29.99S
DECATUR        CLEAR     60  42  51 NW9       29.98R
PEORIA         CLEAR     62  39  42 NW3       29.99S
LACON*         CLEAR     60  41  49 CALM      29.98S
LINCOLN*       CLEAR     62  44  51 CALM      29.99R
SPRINGFIELD    CLEAR     63  42  46 NW6       29.99S
TAYLORVILLE    CLEAR     59  45  58 NW5       29.99S
$$

ILZ033-039-045-046-055>057-062-063-060200-
EAST-CENTRAL ILLINOIS

CITY           SKY/WX    TMP DP  RH WIND       PRES   REMARKS
CHAMPAIGN      PTCLDY    58  42  55 N7        29.97R
RANTOUL*       CLEAR     61  45  54 NE7       29.97R
MATTOON        CLEAR     58  41  53 N7        29.96R
PARIS*         CLEAR     59  43  55 CALM      29.97R
$$

ILZ079-100>102-060200-
SOUTHWEST ILLINOIS

CITY           SKY/WX    TMP DP  RH WIND       PRES   REMARKS
ALTON          PTCLDY    61  43  51 CALM      30.01R
BELLEVILLE     CLEAR     60  46  59 NW2       29.99S
CAHOKIA*       MOCLDY    62  44  51 N5        30.00S
SPARTA*        CLEAR     58  46  62 CALM      30.01S
$$

ILZ064>066-069>071-074>076-080>082-084>086-088>090-092>094-060200-
SOUTH-CENTRAL ILLINOIS

CITY           SKY/WX    TMP DP  RH WIND       PRES   REMARKS
CARBONDALE     CLEAR     57  45  64 NW3       30.00R
CAIRO*         CLEAR     57  45  65 CALM      30.01R
EFFINGHAM*     CLEAR     60  46  59 CALM      29.98S
MARION         CLEAR     59  46  63 CALM      30.00S
MT. VERNON     CLEAR     55  43  62 CALM      29.99S
CENTRALIA*     CLEAR     59  49  67 NW6       29.98S
SALEM*         CLEAR     60  47  61 NW6       29.98S
METROPOLIS*    CLEAR     55  49  82 CALM      30.00S
$$

ILZ067-068-072-073-078-083-087-091-060200-
SOUTHEAST ILLINOIS

CITY           SKY/WX    TMP DP  RH WIND       PRES   REMARKS
LAWRENCEVILLE  CLEAR     60  44  55 NW3       29.95S
FLORA*         CLEAR     60  45  56 NW3       29.97S
FAIRFIELD*     PTCLDY    59  47  65 CALM      29.96R
HARRISBURG*    CLEAR     56  48  74 W5        29.98S
ROBINSON*      PTCLDY    56  44  64 NW3       29.96S
CARMI*         PTCLDY    58  49  73 W6        29.96S
$$

ABBREVIATIONS USED IN REMARKS
   TC - TEMPERATURE IN CELSIUS
  WCI - WIND CHILL INDEX
   HX - HEAT INDEX
  VSB - VISIBILITY
$$





USA.gov is the U.S. government's official web portal to all federal, state and local government web resources and services.